Theta_e
328 327 328 330 330 331 331 331 331 332 332 332 332 332 332 332 332 331 330 331 330 330 329 329 329 329 328 328 328 327 324 319 316 315 316 323 328 330 329 328 328 327 330 318 311 308 304 305 305 309 306 311 312 310 317 314 316 313 303 300 297 297 298 301 300 300 302 300 300 302 304 303 301 303 304 306 306 305 304 307 309 315 317 327 328 330 331 331
328 328 328 329 329 330 331 330 331 332 332 332 332 332 332 332 331 331 330 330 330 329 329 329 329 328 328 327 327 326 323 321 316 316 317 325 332 332 331 332 331 331 329 312 306 305 303 303 305 306 304 302 321 307 311 312 314 306 301 300 297 299 300 302 300 300 299 300 302 303 304 304 303 304 303 301 301 302 301 304 307 310 313 322 328 329 329 329
327 326 328 327 329 329 330 330 330 331 331 331 331 332 332 331 330 330 329 330 329 328 329 329 329 328 328 328 326 326 321 316 315 313 319 330 329 329 330 330 333 332 312 308 308 306 305 304 304 304 304 301 306 304 309 309 309 303 303 298 298 304 301 302 302 301 302 304 302 302 303 303 304 305 304 301 301 301 300 300 302 307 309 319 326 328 327 328
327 326 326 327 328 329 330 329 330 330 330 330 330 331 330 329 329 329 329 329 329 329 329 329 328 327 328 327 326 322 324 317 311 317 324 333 332 330 331 333 332 329 313 309 307 307 306 307 304 304 303 300 302 306 304 307 304 304 301 299 302 302 300 301 302 302 301 304 303 303 303 302 303 303 302 301 299 299 301 303 304 304 310 318 325 326 326 326
327 326 326 326 327 329 329 329 329 330 330 330 330 330 329 329 329 329 329 329 329 329 328 329 328 328 328 326 324 321 319 308 312 321 322 333 334 334 334 333 333 324 310 308 309 308 307 305 303 303 304 297 300 302 302 305 306 308 300 303 301 301 299 302 301 300 302 302 304 302 301 301 304 303 301 301 297 296 300 304 305 306 313 319 323 325 325 325
326 326 326 326 327 328 328 329 329 330 330 330 329 329 328 328 328 328 328 329 328 328 328 328 328 328 327 324 322 320 315 296 312 322 330 332 331 331 330 331 333 318 310 309 308 307 304 303 303 300 299 297 297 297 301 303 307 298 301 302 300 300 299 302 301 299 299 304 302 301 302 302 301 301 302 301 301 301 305 304 309 310 317 321 326 325 323 324
326 325 326 325 326 328 328 329 329 330 330 330 329 328 328 328 328 327 327 328 328 328 328 328 328 328 326 323 320 316 313 317 314 327 331 332 331 330 330 331 332 315 310 307 307 305 304 302 301 299 298 298 298 298 301 302 305 301 298 300 299 301 299 300 299 300 299 301 301 303 303 300 299 297 302 301 302 303 304 305 309 315 319 322 323 322 323 324
325 325 325 325 325 327 327 328 329 329 329 329 329 328 328 328 328 327 327 328 327 327 328 327 327 326 324 319 313 308 310 312 318 326 331 331 328 326 327 328 319 312 308 306 305 304 304 303 299 300 297 296 299 299 302 300 302 299 298 302 300 300 300 299 299 299 301 300 299 301 300 299 300 299 300 300 302 305 307 309 308 316 320 322 322 321 323 324
323 324 323 323 324 325 326 328 328 328 328 328 328 328 328 328 327 326 327 327 327 327 327 327 326 326 323 318 313 307 306 319 322 331 331 327 322 322 326 320 315 309 306 307 306 306 305 305 301 300 295 297 300 298 300 301 296 301 301 301 301 299 299 299 299 300 300 300 301 298 298 298 298 300 299 300 302 307 308 308 308 311 316 319 320 322 323 324
324 324 323 323 324 324 325 326 327 328 328 328 328 327 328 327 326 326 326 327 327 326 326 326 326 324 320 313 311 305 314 324 330 330 329 326 322 321 321 318 312 308 306 305 306 306 304 306 301 303 303 299 301 298 303 299 297 301 301 301 300 299 299 300 300 299 301 301 300 298 297 298 299 300 295 301 303 306 306 306 308 309 309 313 317 320 322 324
325 324 324 323 323 324 326 326 325 327 328 327 327 327 327 326 326 326 326 326 326 326 326 326 325 323 317 312 306 305 317 325 329 327 326 326 322 318 316 314 312 308 307 306 304 306 305 304 304 303 305 298 298 298 300 300 301 302 300 299 298 300 300 299 300 299 299 299 300 300 297 298 299 299 295 299 300 303 302 305 305 306 308 309 312 315 319 322
325 324 324 324 323 324 326 326 326 326 327 327 326 326 326 325 325 325 325 326 326 326 325 325 324 323 315 310 308 310 313 319 326 324 323 323 320 318 316 314 312 309 307 304 305 306 305 306 304 301 295 301 295 298 298 302 301 301 300 296 297 298 297 299 298 299 300 298 299 301 296 296 296 295 299 300 300 301 301 303 305 304 306 309 311 313 314 316
324 324 324 324 324 324 325 326 326 326 326 326 325 325 325 325 325 325 325 325 325 325 325 325 324 321 311 303 310 313 318 319 323 323 321 319 314 311 310 312 311 309 308 306 305 307 308 308 307 300 301 299 297 294 298 300 301 302 300 297 295 295 294 298 300 298 298 298 300 300 288 291 295 299 300 300 300 300 300 299 304 304 303 307 309 312 314 316
323 323 323 323 323 324 324 325 325 325 325 325 325 324 324 324 324 325 325 323 324 324 324 324 322 318 310 305 309 314 316 318 320 319 317 313 311 311 308 310 310 307 311 306 307 310 307 305 310 302 306 299 297 303 299 300 301 295 298 298 293 290 291 298 298 297 297 298 298 299 290 291 297 298 299 300 301 300 298 298 301 303 303 303 307 310 314 316
322 322 322 323 323 323 323 325 325 325 325 325 324 324 323 323 323 324 324 323 323 323 324 324 321 314 303 306 312 315 324 317 313 313 313 311 308 306 306 308 308 309 305 306 309 308 306 306 307 300 297 302 301 297 294 295 296 296 292 289 293 290 295 296 300 298 295 296 298 297 291 291 295 296 298 299 299 299 297 298 299 302 303 304 307 310 312 314
322 322 322 322 323 322 322 323 323 324 324 324 323 323 322 322 322 323 323 322 323 323 323 316 315 311 303 300 305 323 314 307 308 312 312 312 310 306 306 306 306 305 305 303 304 303 305 304 300 298 299 299 296 293 293 293 293 294 291 290 289 291 292 294 296 299 300 297 298 295 290 294 294 296 298 299 298 298 297 297 298 301 303 304 306 308 308 310
321 322 322 322 322 322 322 322 322 322 323 322 322 321 321 322 322 322 322 322 322 322 317 309 312 312 300 305 310 306 304 308 312 312 311 312 310 307 306 304 303 303 304 302 305 305 304 301 303 300 300 294 295 294 289 288 288 289 292 289 293 290 291 290 295 298 300 297 292 294 291 292 296 296 297 299 299 298 296 296 298 299 300 303 304 306 306 307
322 321 321 321 322 322 322 322 322 322 321 321 320 320 319 321 322 321 320 320 320 318 315 312 311 305 302 305 300 302 308 309 310 310 311 311 310 307 305 303 302 301 301 300 306 299 301 296 299 293 294 294 294 292 287 285 289 288 289 288 289 291 293 291 290 294 297 296 294 293 291 293 295 296 296 297 298 298 297 297 296 297 298 300 302 303 304 304
322 321 321 322 322 321 321 321 321 321 320 320 321 321 321 321 319 318 313 313 307 302 297 296 301 294 296 301 307 308 307 311 311 309 306 308 309 308 307 305 303 300 297 296 296 298 298 299 298 293 289 291 291 292 291 294 294 292 293 291 291 289 290 290 293 296 297 293 292 293 291 293 295 295 296 296 297 297 296 296 297 297 297 298 300 300 300 302
321 321 321 321 321 321 321 321 321 320 320 318 316 314 312 306 305 302 310 309 302 301 302 300 303 306 305 306 306 310 313 312 305 308 307 309 307 305 303 303 303 300 296 293 295 296 300 292 288 288 291 293 294 295 295 296 295 294 294 293 292 292 293 293 294 295 294 294 292 292 293 293 294 295 297 297 296 295 295 296 297 297 298 298 297 299 300 301
320 321 321 321 321 320 320 321 320 320 319 316 314 308 299 301 297 295 302 303 307 304 302 301 304 306 304 306 306 306 303 304 308 305 306 310 307 303 299 300 296 293 294 297 295 299 296 291 290 292 294 295 295 296 296 295 295 293 293 292 291 293 289 294 293 294 296 293 290 292 292 293 294 295 296 297 296 295 296 295 296 298 298 299 298 298 300 301
320 320 320 320 320 320 320 320 320 319 319 316 312 306 307 307 309 311 306 297 303 307 304 303 305 301 308 307 309 308 306 300 303 305 309 308 303 299 298 298 294 292 295 296 296 293 291 289 293 295 296 296 295 296 295 295 294 293 292 292 290 291 292 294 293 295 295 292 289 291 291 292 294 295 296 295 296 297 298 298 298 298 298 299 299 299 300 300
320 320 320 320 319 320 320 320 319 319 315 312 308 308 307 313 316 315 310 302 299 305 302 301 300 301 304 307 307 308 300 297 298 303 303 307 300 300 298 296 293 294 295 295 290 290 287 290 295 296 296 295 294 295 295 296 297 292 291 289 288 294 289 288 291 294 294 292 292 290 290 292 295 295 295 297 298 298 299 300 300 299 299 299 299 300 301 300
319 319 319 319 320 320 320 319 319 315 312 311 309 308 313 314 314 312 304 295 293 298 302 302 304 302 302 301 307 305 301 300 302 300 307 305 298 301 298 297 294 294 292 294 293 291 290 293 293 295 295 295 293 294 293 291 289 295 296 293 291 292 292 291 289 292 292 293 292 290 289 289 291 292 293 296 298 298 298 298 299 300 300 299 301 301 302 301
319 318 318 319 319 319 319 319 312 311 312 310 309 313 313 315 314 317 302 297 296 295 307 304 312 305 305 313 309 302 302 301 303 305 306 305 300 299 297 299 296 292 294 295 294 292 291 292 295 293 294 294 294 291 293 294 288 290 296 297 294 294 291 292 291 289 288 287 291 291 282 281 287 291 292 294 294 296 297 297 299 300 301 301 301 302 303 306
318 318 318 318 319 318 319 311 309 312 310 306 310 314 315 316 315 311 303 293 287 294 301 293 309 298 312 302 305 303 301 296 303 305 306 306 307 300 298 295 296 291 293 294 293 294 292 290 293 293 293 293 294 292 294 295 289 289 290 297 294 293 293 291 290 291 283 280 289 292 282 279 289 290 291 292 293 294 295 297 299 300 301 301 301 301 301 303
318 317 318 318 319 319 311 304 313 312 305 306 313 316 315 314 316 308 298 289 285 294 292 300 301 301 312 302 303 303 289 292 302 305 304 309 302 304 295 293 295 296 297 296 291 288 290 290 292 295 294 293 292 289 295 294 289 287 294 298 295 295 293 292 292 291 289 291 291 290 290 281 281 288 293 292 293 292 293 295 296 297 298 300 300 300 300 301
318 318 318 319 318 317 311 312 310 307 307 311 316 315 312 313 313 308 295 279 280 298 292 294 301 312 307 302 305 297 298 302 296 300 305 306 303 299 297 294 293 294 295 293 284 294 291 289 293 293 294 292 291 293 298 296 292 292 295 298 295 295 295 294 292 288 290 286 282 285 290 280 279 287 293 292 291 291 291 293 295 297 297 298 299 300 300 300
318 318 317 318 318 317 316 312 310 307 312 314 315 314 313 309 307 297 287 278 293 293 308 292 311 303 301 302 299 297 298 301 295 300 305 304 305 299 293 295 295 294 295 293 289 291 294 293 294 295 293 290 292 290 293 297 291 294 297 299 299 298 297 296 289 289 286 283 280 283 288 279 280 288 289 291 289 289 291 293 295 296 297 297 298 298 300 300
318 317 318 317 316 314 313 313 310 312 314 315 313 312 312 306 298 288 282 275 295 285 296 296 297 294 299 294 295 297 295 297 299 299 300 299 299 301 299 301 295 293 293 295 292 291 293 294 294 294 292 295 290 292 294 294 296 297 297 295 294 293 291 291 289 285 285 279 280 287 289 286 279 285 287 287 290 291 292 293 296 298 298 299 299 299 299 300
317 318 317 317 311 312 311 306 310 313 315 314 311 308 304 300 289 282 276 286 294 292 296 293 293 299 294 292 290 295 296 296 296 298 294 299 295 298 297 295 298 293 291 292 290 292 292 293 295 293 292 293 295 293 296 296 296 298 294 290 290 287 287 285 284 285 280 277 283 282 287 289 278 281 291 291 292 292 292 292 294 296 297 298 298 298 298 298
317 317 318 315 314 315 307 305 310 314 313 312 308 301 296 284 288 280 279 297 285 288 289 289 295 295 294 295 293 292 292 295 296 295 293 293 292 291 292 288 291 283 283 285 285 291 288 290 295 295 295 294 294 291 291 294 295 295 292 290 284 281 281 277 282 276 277 277 281 283 285 283 283 287 290 291 292 292 293 295 294 296 297 297 298 298 299 299
316 316 317 315 313 311 312 313 313 313 312 309 303 299 289 283 275 285 286 288 286 292 289 295 292 294 294 292 291 293 297 291 295 294 295 294 292 292 295 293 294 290 282 286 285 285 288 293 293 295 294 294 297 288 285 285 289 292 289 284 282 279 276 272 276 279 279 280 281 282 285 280 284 287 294 294 295 292 292 295 296 296 297 298 299 299 300 300
317 316 313 312 313 314 313 312 312 312 309 305 299 294 289 281 279 293 288 288 290 294 294 292 293 294 293 289 291 294 290 295 293 293 294 291 292 288 291 294 295 292 291 288 284 283 280 279 287 290 286 295 293 294 291 289 290 291 293 290 283 283 279 273 277 274 274 278 280 282 279 278 279 284 292 294 293 293 292 294 295 296 297 297 297 298 299 300
316 314 313 313 311 313 312 312 311 311 307 301 294 289 281 280 285 285 286 290 291 293 291 295 292 291 290 291 293 294 294 289 294 293 292 290 288 289 289 291 294 294 292 285 286 283 284 283 290 293 293 293 293 296 297 294 290 291 293 295 288 284 288 280 282 282 278 275 277 277 277 282 286 293 292 291 292 293 293 294 293 293 295 296 297 297 298 299
313 311 312 308 308 311 312 312 310 309 304 297 289 284 282 285 283 290 289 296 293 290 291 293 292 288 287 289 292 292 299 292 293 292 290 291 292 290 293 293 293 294 291 286 287 280 283 280 290 294 293 291 292 292 295 296 283 288 290 284 288 293 286 281 281 282 281 279 276 281 281 284 289 290 293 292 291 292 292 291 292 292 294 295 296 300 299 298
308 309 305 307 308 311 312 312 310 307 302 295 288 283 288 290 299 293 297 293 293 293 291 285 287 287 285 286 288 291 293 295 292 291 286 292 289 293 292 293 297 295 295 293 286 291 283 284 289 290 289 292 293 291 295 293 293 290 283 289 294 294 292 286 280 280 279 276 278 280 278 279 283 280 290 288 289 289 289 290 291 293 294 294 296 299 299 299
306 306 306 306 309 312 313 312 308 305 302 296 286 289 293 291 300 296 297 296 295 294 290 288 288 292 286 288 287 290 293 290 289 290 287 291 286 296 293 293 296 296 296 297 289 290 291 280 285 288 290 292 294 295 293 295 294 291 289 297 289 282 281 283 282 275 274 273 276 279 279 279 280 285 286 287 287 289 290 290 291 294 293 294 298 299 299 298
306 304 298 305 311 312 312 311 306 302 297 290 287 287 293 299 300 296 297 297 297 294 289 290 288 290 291 288 290 292 292 287 291 289 287 288 284 294 294 295 293 297 297 295 291 293 292 283 281 289 289 290 291 291 284 286 294 295 294 290 293 287 285 281 281 282 281 275 276 275 279 276 286 286 288 288 290 290 289 289 290 292 293 295 298 298 297 297
302 298 296 308 311 312 312 308 302 299 295 286 288 288 298 294 297 298 298 298 294 293 291 291 292 289 291 291 292 289 291 291 290 289 290 290 289 295 294 297 294 295 296 296 294 296 286 288 279 284 291 291 282 285 285 288 285 285 284 284 287 287 288 286 285 282 280 277 276 276 275 280 286 291 290 291 290 291 290 292 292 293 294 296 297 298 298 299
304 298 298 309 310 312 309 303 296 292 290 292 293 294 295 294 296 297 299 299 298 302 295 293 292 290 291 291 290 293 290 291 291 289 290 289 290 283 294 296 296 294 296 296 293 293 285 284 282 282 283 282 286 289 290 292 290 289 288 286 288 284 282 279 279 285 281 280 276 277 274 281 291 292 291 291 292 292 292 292 295 295 294 295 298 299 300 300
299 292 295 309 310 309 301 293 293 294 290 289 288 293 295 301 297 297 299 300 299 296 302 296 295 293 293 292 293 292 290 290 290 289 290 288 292 292 294 298 297 296 294 290 291 295 292 286 284 281 283 285 289 290 290 292 290 292 290 288 291 287 286 282 277 281 282 280 280 278 277 277 290 289 289 289 290 290 291 292 294 295 295 295 297 300 301 300
298 295 306 309 310 305 298 291 293 290 289 292 298 297 298 298 297 298 296 298 296 300 297 295 294 293 294 294 293 292 292 289 291 289 291 292 292 294 297 296 297 295 296 291 294 291 293 287 284 283 285 288 289 290 290 290 291 290 289 288 288 287 288 286 283 284 281 279 278 280 275 278 290 289 287 290 289 289 289 290 292 294 295 297 297 299 299 298
298 296 299 308 309 305 295 286 286 288 289 293 296 295 299 298 296 295 295 296 296 296 295 295 295 297 294 296 294 291 293 285 292 291 289 293 290 296 298 297 297 293 294 291 291 295 286 286 286 280 280 282 284 287 287 289 290 285 284 288 290 291 289 285 284 284 282 281 280 278 275 279 287 286 289 289 289 289 289 290 290 293 296 297 297 298 298 297
299 300 300 303 306 303 291 294 290 289 289 289 290 289 294 294 298 297 297 297 300 296 296 294 296 298 296 297 294 294 294 291 285 293 295 293 292 294 296 296 297 295 299 297 297 298 289 288 286 280 276 274 273 276 279 281 283 285 285 288 290 290 288 285 283 283 279 281 281 279 278 285 287 286 289 290 289 290 290 291 291 293 296 297 297 298 298 296
294 287 294 296 301 300 299 300 297 292 290 290 287 289 294 291 296 298 300 296 298 300 297 297 297 298 295 295 292 291 291 294 291 288 291 289 288 293 296 296 296 295 294 297 296 294 286 288 289 287 283 281 283 283 287 289 285 284 286 288 288 290 291 288 286 283 281 281 279 281 284 285 286 287 286 287 288 288 290 291 290 290 293 296 297 297 297 297
298 290 290 287 296 297 295 297 295 294 290 293 286 291 288 291 293 294 298 292 295 297 296 296 295 292 292 293 291 291 292 292 292 292 290 289 289 290 294 296 293 293 294 294 295 291 286 285 288 289 287 288 289 285 290 291 287 288 287 287 290 289 289 288 286 284 288 284 281 286 288 285 287 287 288 288 289 290 291 291 291 291 293 297 297 296 297 297
290 294 296 296 290 287 289 292 296 293 294 293 290 293 290 290 290 289 294 297 296 298 293 294 294 294 294 292 292 287 290 289 290 288 291 287 287 289 289 293 293 294 293 293 294 291 287 285 288 288 287 289 290 292 291 290 289 289 288 288 287 289 288 286 287 289 288 284 283 288 289 287 289 288 289 290 291 292 292 292 293 293 294 296 296 295 295 295
295 296 297 299 292 294 293 294 296 294 292 292 291 291 290 289 288 292 292 292 295 293 295 286 291 293 294 295 293 288 290 285 284 289 287 285 284 284 283 287 291 292 292 290 289 289 286 284 288 289 287 289 290 290 292 290 289 289 289 289 289 288 288 289 289 290 289 287 290 290 289 289 291 290 290 290 292 293 293 293 292 293 295 296 296 295 294 294
292 293 290 296 297 294 294 295 295 294 290 292 288 290 291 290 289 293 295 292 289 291 296 291 291 294 294 294 293 289 291 291 290 287 289 288 284 285 284 286 284 285 286 288 290 288 289 283 290 285 283 284 289 290 290 289 289 286 288 289 290 290 289 289 289 289 289 289 290 290 288 288 292 293 293 294 293 291 291 292 294 295 295 295 295 295 294 295
292 292 297 293 291 293 294 294 293 292 289 290 289 290 292 291 290 293 293 297 292 291 293 291 293 294 294 294 293 292 295 294 293 293 292 291 287 291 288 287 290 286 287 287 287 287 288 283 286 285 283 283 285 286 287 286 286 285 285 287 289 288 286 287 286 289 287 286 287 287 285 287 293 293 294 292 291 292 292 292 292 294 295 295 295 295 295 295
296 299 298 298 290 294 291 294 293 292 287 290 291 291 291 291 294 294 290 296 299 298 296 295 295 294 292 293 291 294 297 296 296 296 295 293 295 294 295 293 292 289 287 288 288 286 286 285 284 284 283 283 285 287 284 284 285 283 283 287 290 290 290 290 290 290 290 291 286 284 286 292 293 293 293 291 291 292 292 292 292 293 295 296 296 296 296 295
Wind_Speed
26 22 24 27 26 24 25 24 23 23 22 22 22 22 22 22 21 20 20 15 17 16 15 13 13 12 13 12 12 12 10 5 6 5 6 5 7 12 9 8 9 7 2 2 1 4 5 7 9 1 4 2 2 1 2 1 0 0 1 2 3 4 3 3 4 4 4 5 4 7 7 7 6 3 2 2 1 3 4 6 4 9 7 5 5 10 12 12
26 27 29 28 26 26 24 24 24 23 22 23 23 23 21 20 20 20 19 17 17 18 16 15 14 14 13 12 12 11 4 2 7 7 12 7 11 10 10 6 9 8 5 1 2 4 4 7 7 6 3 3 2 2 4 1 2 2 2 2 3 3 2 2 4 5 3 4 9 5 5 6 6 8 3 3 4 5 3 4 5 7 5 4 5 10 11 11
24 22 28 28 28 26 25 24 24 23 23 22 22 20 20 21 21 20 17 17 18 17 16 16 15 14 14 13 12 11 3 2 1 12 10 12 10 9 7 6 8 9 4 3 2 2 4 4 8 9 3 5 2 3 2 1 2 4 2 2 5 2 3 4 5 3 5 10 8 6 6 3 9 6 4 3 7 5 6 6 6 7 8 8 8 9 10 9
25 27 26 22 26 27 24 25 25 24 23 22 20 21 21 21 21 20 18 17 17 17 17 16 16 15 13 13 11 8 1 3 8 7 7 14 12 10 10 6 8 9 3 4 3 2 2 3 7 7 5 5 3 4 2 2 1 2 2 2 1 1 3 4 6 4 4 3 7 6 5 2 8 4 5 4 6 6 5 6 9 10 12 11 11 11 9 10
24 21 26 26 24 25 26 24 24 24 23 22 21 20 20 21 21 19 17 18 17 18 17 16 16 15 14 12 13 5 5 1 5 11 11 19 16 13 10 8 10 7 6 5 2 1 0 1 5 4 2 4 5 4 5 2 4 1 4 1 4 5 3 3 5 6 3 3 7 5 7 4 4 6 4 5 4 4 3 5 11 10 15 15 13 11 9 11
26 26 26 26 29 28 28 26 25 24 24 23 22 20 20 20 20 20 19 18 18 17 17 17 16 15 14 14 7 4 7 8 1 1 9 24 22 18 15 12 12 8 9 7 2 2 4 3 2 2 1 2 3 4 2 6 4 3 4 2 3 3 2 0 2 3 4 1 5 5 3 5 3 2 4 4 3 1 0 4 5 2 18 16 14 12 11 10
26 29 28 28 28 27 26 27 26 25 24 23 22 21 21 20 20 20 20 19 18 18 18 17 16 16 15 11 3 7 12 9 2 1 4 16 22 19 15 12 11 8 9 8 4 3 4 0 4 5 2 2 9 9 8 3 3 3 3 3 2 4 3 4 2 2 3 4 4 3 6 4 4 3 4 4 4 5 4 5 5 11 15 14 13 12 14 13
26 28 29 30 29 27 27 27 24 24 24 23 23 21 21 21 20 20 20 20 19 18 18 18 17 17 15 8 7 5 8 13 1 3 5 9 15 17 14 9 11 8 9 10 9 4 3 2 6 4 6 5 2 4 0 3 3 5 6 1 1 4 1 2 1 3 1 3 4 6 5 3 3 1 2 5 5 5 5 4 4 10 13 12 12 12 11 11
26 25 23 24 26 27 27 29 27 26 25 26 23 22 21 20 20 20 20 20 19 19 18 18 19 15 14 8 8 7 13 5 4 5 8 9 10 14 13 10 9 11 8 9 11 6 5 3 6 7 4 5 9 11 2 1 4 5 3 2 2 3 3 2 3 2 2 2 0 3 3 5 3 3 1 4 4 6 6 6 4 5 9 11 11 11 11 11
29 27 26 27 27 27 26 26 28 27 25 25 24 23 20 20 20 20 20 20 19 18 18 19 17 19 9 7 7 10 1 9 6 7 8 11 11 13 12 8 12 9 8 9 9 8 6 3 7 4 4 8 5 6 1 5 2 3 3 2 3 3 3 1 2 3 1 2 1 2 4 3 2 1 3 5 6 7 7 7 4 6 5 7 8 9 9 11
29 28 27 29 30 29 27 26 26 27 26 25 24 23 21 19 19 19 20 20 19 18 18 18 18 14 6 9 11 10 1 3 4 6 8 11 14 13 13 9 11 9 8 10 9 9 8 12 5 2 2 3 7 3 2 1 1 2 4 4 3 1 1 1 3 4 3 1 2 3 2 4 1 1 2 4 4 7 9 7 6 5 6 5 7 8 7 8
28 27 27 29 28 30 30 27 25 25 25 25 26 24 22 19 18 19 20 19 19 19 18 17 19 7 5 10 9 5 1 4 5 7 8 11 11 12 9 11 11 10 8 11 9 12 12 6 6 5 4 3 2 2 4 1 1 3 3 2 2 3 2 2 3 4 2 1 4 2 3 1 3 5 6 5 4 3 6 8 7 6 6 6 5 6 6 7
29 29 30 30 29 27 28 28 26 25 25 25 25 23 21 19 18 19 19 19 19 20 18 16 14 4 6 8 8 2 2 4 6 9 8 4 6 4 4 5 6 5 5 9 8 6 4 4 2 5 5 3 3 3 4 7 3 1 3 2 2 3 2 4 3 3 1 1 1 1 1 5 9 13 6 7 7 4 4 6 6 6 5 6 6 6 6 5
30 29 29 31 32 31 29 27 27 26 26 26 25 23 21 20 19 18 18 18 21 19 16 16 6 4 7 5 4 1 3 4 6 8 9 8 10 4 5 5 3 3 3 5 3 2 6 3 1 4 1 3 2 1 5 1 2 4 3 4 3 4 3 7 3 4 2 1 2 1 2 3 7 7 5 5 7 9 7 5 7 6 5 5 6 6 6 7
30 30 28 29 28 30 29 29 27 26 27 26 25 24 22 21 20 19 18 18 18 19 15 11 4 4 6 4 4 1 3 6 9 7 8 11 11 8 5 5 4 2 4 5 1 1 3 4 2 3 3 0 2 3 4 2 2 3 4 5 3 6 0 4 3 9 3 1 3 1 2 7 3 5 4 3 3 4 5 6 6 6 6 5 5 6 6 6
31 31 30 29 29 28 29 29 28 28 26 27 26 24 23 21 20 19 18 15 18 17 10 9 6 5 5 8 4 5 2 7 9 8 6 6 7 6 7 6 5 4 3 3 3 2 0 4 6 3 1 0 3 3 5 2 3 4 6 2 4 4 3 2 2 4 4 5 1 4 3 1 1 1 3 1 3 4 3 4 6 7 7 7 5 5 5 5
31 30 31 30 29 28 28 28 28 27 26 27 27 26 23 21 20 20 19 19 11 7 8 5 6 4 5 1 4 9 8 5 10 5 4 3 4 11 11 9 5 6 4 4 3 2 2 6 1 1 3 3 3 4 4 6 3 5 4 3 4 6 5 2 2 1 1 5 4 5 2 3 1 5 4 3 3 4 4 5 5 6 6 7 6 6 6 6
32 31 30 30 30 28 29 29 29 29 27 28 26 26 22 22 23 21 16 10 7 5 5 2 4 3 7 6 10 12 11 8 8 8 5 1 5 11 8 4 6 9 7 4 1 5 4 4 5 5 3 5 7 7 7 7 5 3 3 3 3 6 7 5 6 5 3 4 4 5 4 9 2 4 4 6 5 5 6 5 5 4 5 6 7 7 7 7
33 33 32 31 29 29 28 30 31 30 28 29 29 28 26 23 11 6 10 11 11 6 4 7 8 13 9 18 9 10 11 10 10 11 7 5 6 6 3 5 11 13 5 6 3 7 3 1 4 4 9 9 10 9 8 2 5 5 6 6 6 3 4 2 1 1 8 6 4 6 8 10 10 4 4 5 5 7 6 6 5 5 5 5 7 7 7 7
33 34 34 32 31 30 30 30 31 31 35 27 23 18 12 13 9 7 9 10 12 17 3 19 12 3 6 15 11 7 14 13 9 5 10 5 8 7 5 7 5 6 10 8 6 8 5 6 8 9 6 6 8 9 8 9 3 5 7 8 9 5 2 3 2 0 2 1 6 5 5 6 6 7 7 8 6 5 6 6 6 5 5 5 5 6 8 8
32 33 34 33 30 30 32 31 32 35 33 23 22 19 15 18 20 15 17 15 13 10 2 20 17 3 3 13 15 19 13 8 7 9 10 7 7 11 6 7 6 7 5 7 9 3 8 6 8 7 8 8 9 8 10 4 6 6 5 7 6 5 2 2 2 2 1 1 3 5 5 7 6 6 5 7 6 9 8 7 6 7 7 7 8 7 7 7
32 33 32 34 31 32 32 31 33 32 28 18 15 10 9 18 6 1 17 11 13 12 5 17 16 2 6 10 11 11 11 12 10 9 4 8 9 8 7 6 10 8 7 6 5 5 9 10 6 9 9 5 7 9 8 5 3 4 2 3 5 3 3 2 4 1 1 2 4 2 6 8 8 6 5 4 11 8 9 10 10 9 9 8 8 8 8 6
34 33 33 32 33 32 32 33 32 30 17 14 9 11 11 10 4 18 4 11 5 7 7 17 16 7 8 7 1 1 15 14 13 10 10 5 10 6 11 8 9 7 10 9 9 6 6 6 7 8 7 3 3 7 5 2 1 3 3 1 2 3 4 1 0 1 1 0 0 3 3 7 6 6 6 7 9 7 9 12 11 10 11 11 10 9 9 9
34 34 34 32 33 34 36 33 31 22 16 20 16 10 11 2 9 18 12 7 9 7 5 16 11 8 9 10 5 4 12 8 13 13 9 8 12 5 9 9 11 7 11 11 10 9 5 3 0 1 4 6 3 3 5 4 3 3 4 2 1 1 1 2 3 2 1 1 1 2 4 7 6 7 7 9 12 9 7 8 8 9 9 8 6 7 9 10
34 34 34 34 33 36 34 34 19 16 16 17 14 8 7 4 2 2 10 9 4 1 4 13 2 5 6 4 7 4 6 5 6 10 10 8 11 7 8 5 6 8 8 9 9 7 7 1 1 4 4 5 4 3 4 4 4 3 3 2 3 2 6 5 5 4 2 3 3 3 2 5 5 11 14 10 7 10 8 8 9 9 7 5 7 8 5 5
34 35 35 35 36 35 37 19 16 16 18 17 19 12 6 4 2 3 4 5 9 5 2 12 2 7 4 7 7 4 8 6 4 11 13 4 3 5 5 7 4 10 10 12 8 2 3 1 2 8 6 5 5 4 4 5 4 3 3 4 2 3 7 6 5 2 2 1 1 0 8 5 2 3 7 7 6 11 5 8 9 8 7 8 9 8 8 8
35 34 36 37 36 38 22 10 17 19 18 13 16 10 4 5 2 4 6 3 5 5 11 3 7 2 1 10 8 6 9 7 2 8 11 2 10 1 8 7 4 1 6 3 1 6 2 2 2 1 5 6 4 6 4 8 4 3 1 3 5 7 6 5 5 3 0 1 1 0 1 2 5 9 4 5 7 6 5 7 8 8 9 11 10 9 8 8
36 37 35 37 38 36 5 13 19 18 12 18 17 7 7 4 2 1 1 8 6 11 8 4 3 2 1 10 7 7 2 15 6 6 6 2 1 2 1 10 11 8 7 6 10 1 3 4 3 5 3 4 7 3 3 6 4 2 0 4 0 3 5 5 3 2 0 1 3 2 2 1 4 5 1 0 1 3 6 7 10 11 9 9 10 9 8 7
36 36 38 35 36 16 11 17 17 13 11 15 9 8 5 5 0 3 4 7 3 5 5 9 1 4 5 10 9 5 5 10 7 6 4 4 2 1 4 5 7 4 3 5 7 1 2 3 6 7 7 7 3 0 1 6 6 2 1 2 3 3 2 3 2 2 0 1 5 5 5 3 7 3 4 1 3 6 6 9 10 10 11 9 7 5 5 5
37 35 35 36 25 9 10 10 12 12 15 13 10 9 6 3 2 5 8 7 6 5 10 4 7 13 13 15 12 10 9 6 4 4 5 6 4 2 1 1 6 7 3 8 8 1 0 0 2 2 4 1 4 2 1 2 3 4 3 6 3 3 1 0 0 2 1 3 7 4 8 3 4 5 7 6 6 7 7 3 1 2 5 5 5 5 5 4
36 36 35 36 13 10 14 14 12 14 16 12 12 10 5 1 5 6 11 4 6 5 5 9 11 13 16 17 12 12 7 5 9 14 9 5 4 4 3 3 4 5 3 3 4 2 1 1 0 1 1 2 2 4 3 1 4 5 2 3 5 4 2 1 1 0 2 4 1 3 1 0 7 4 3 2 0 1 2 2 4 4 5 5 5 5 4 4
34 36 38 23 11 12 13 14 16 13 15 17 15 10 7 9 3 6 5 7 9 7 11 13 15 17 21 17 10 14 10 9 8 14 15 12 10 10 11 7 8 7 6 9 4 2 3 1 2 3 4 1 3 6 4 2 0 2 5 6 7 2 2 1 1 3 4 5 1 1 2 2 9 7 7 4 1 2 3 1 5 6 5 5 5 5 4 4
35 33 34 15 14 8 9 13 12 12 13 16 13 9 9 8 12 7 5 12 2 16 10 14 19 21 17 15 11 12 7 9 10 10 12 8 9 7 7 6 6 5 6 4 4 3 0 2 2 1 1 3 2 9 3 1 2 3 7 7 5 3 2 2 2 2 1 1 3 1 2 2 3 5 13 14 13 4 5 4 5 6 6 6 5 3 4 4
32 32 19 12 9 5 11 16 13 16 17 13 11 9 4 10 10 8 8 8 6 9 16 13 17 15 17 14 11 12 9 5 14 10 13 10 10 10 10 9 13 9 4 9 8 8 4 2 5 6 1 4 1 1 6 4 9 7 4 7 5 4 3 3 3 5 5 2 1 3 2 6 3 6 2 9 2 5 3 3 4 5 5 4 2 2 2 4
34 26 14 10 7 8 15 14 13 18 15 14 10 10 15 13 10 16 9 6 6 12 15 17 18 18 15 8 9 10 5 6 9 12 10 13 13 12 15 13 13 9 4 9 3 4 12 3 1 3 2 0 8 1 1 6 2 1 2 2 1 5 0 4 1 1 2 1 0 1 4 2 5 2 3 3 2 1 1 2 3 3 4 3 2 3 4 4
27 12 12 8 9 7 14 13 15 16 16 14 13 10 13 12 10 11 7 7 12 13 19 19 15 15 13 8 9 13 3 5 13 8 7 11 10 10 8 7 11 16 10 8 5 4 3 3 0 2 1 2 0 2 1 0 6 5 4 3 3 1 7 4 1 0 0 1 5 4 3 7 4 7 10 3 2 1 1 3 3 4 5 5 3 4 4 4
16 14 11 11 8 8 12 14 13 14 13 14 15 14 12 6 1 7 5 14 13 19 19 19 12 14 15 12 12 16 7 7 12 9 9 8 7 10 12 10 11 14 10 8 4 3 11 3 1 1 2 1 0 0 0 2 1 6 2 5 1 1 3 3 3 1 0 3 3 6 7 3 3 6 1 2 2 4 4 4 5 4 4 5 5 5 5 5
16 12 11 12 10 11 13 14 14 11 7 5 15 15 5 6 3 7 8 13 14 15 14 14 8 12 15 13 13 16 9 11 14 8 6 14 3 12 9 8 12 13 12 4 5 2 8 4 0 2 1 2 0 0 2 1 2 3 6 0 5 1 3 1 1 3 1 2 2 2 5 3 6 5 0 3 5 5 5 4 4 5 5 5 5 5 4 4
13 13 11 10 10 11 11 15 13 9 4 8 12 10 6 1 3 9 14 14 12 16 15 10 13 8 13 12 12 12 15 11 13 9 9 9 6 11 15 9 9 11 10 6 4 2 4 5 2 1 0 2 1 1 8 4 1 0 0 2 1 2 3 4 4 2 3 3 1 4 1 3 4 4 4 4 7 7 5 5 5 6 6 5 5 6 6 5
13 10 6 11 12 12 13 15 11 8 6 16 13 4 3 2 4 10 16 19 9 12 7 11 8 12 11 7 16 13 12 10 13 7 5 5 3 6 13 11 7 13 10 4 1 5 2 2 5 0 1 2 1 2 7 8 7 1 2 1 1 1 1 2 2 4 3 2 2 2 2 4 6 3 5 3 1 2 5 7 4 4 5 5 5 6 6 5
9 7 8 14 15 13 15 12 10 14 15 8 6 1 5 4 5 9 17 17 7 4 5 11 13 13 13 14 13 10 8 9 11 9 6 8 11 3 5 8 9 11 5 4 4 3 2 1 7 3 3 3 1 2 1 1 6 8 10 8 11 7 3 3 6 1 1 1 3 2 6 2 2 2 4 4 1 3 2 2 4 2 4 4 5 5 5 5
14 11 9 17 18 20 18 15 11 14 6 9 8 3 4 7 6 9 8 10 8 3 1 7 9 7 10 11 13 13 10 9 10 8 6 7 10 1 4 9 14 12 12 10 9 1 4 4 9 4 2 3 0 1 1 1 1 1 1 4 5 3 3 3 5 4 0 3 2 2 1 6 3 1 3 3 2 1 1 1 2 2 3 4 4 3 2 3
7 4 12 21 20 22 16 13 13 11 7 4 3 3 3 3 7 6 10 7 6 1 5 6 10 9 8 8 11 10 15 8 15 13 8 5 6 3 4 11 13 14 8 2 6 3 9 5 6 3 3 1 1 1 2 0 1 0 3 0 4 9 9 8 5 3 4 1 1 1 3 4 2 2 1 1 1 0 2 1 1 1 2 3 4 4 5 5
8 16 13 8 15 13 15 18 18 13 8 0 3 2 4 2 8 8 6 10 5 6 6 5 8 6 8 7 10 13 14 5 7 8 5 6 3 3 6 11 17 9 12 10 13 9 5 3 9 5 2 1 2 1 1 1 1 3 4 6 4 2 4 1 2 1 0 5 6 6 9 6 5 2 2 1 1 1 2 3 2 1 1 3 4 3 4 5
11 6 8 12 12 11 13 9 15 18 16 10 8 7 5 3 3 1 9 6 1 5 6 4 6 9 3 5 7 8 13 8 4 7 3 5 2 2 4 13 14 11 1 5 6 7 3 5 8 6 7 7 6 7 10 10 7 0 3 2 1 3 5 5 6 2 4 4 6 3 5 5 2 2 1 1 1 2 2 2 1 0 2 4 4 4 4 5
10 16 5 7 7 8 7 4 4 13 13 11 9 5 6 5 1 5 6 3 2 4 3 4 4 10 5 9 8 9 11 4 5 6 7 4 1 1 3 6 6 5 2 11 13 10 3 3 6 9 12 12 12 7 3 11 5 5 7 7 7 7 6 3 1 3 7 2 5 6 7 7 5 2 3 4 3 4 4 2 3 4 2 4 5 5 5 4
5 13 17 16 7 11 8 7 5 12 16 18 12 9 10 11 5 2 6 3 3 2 3 4 7 10 7 13 10 10 13 5 4 8 5 7 1 2 5 4 6 7 9 8 11 6 3 4 6 6 7 4 2 3 6 14 11 14 14 13 13 13 11 10 10 10 9 5 8 6 8 9 13 6 5 6 4 4 5 6 5 5 5 6 6 4 4 3
8 7 15 17 20 23 18 14 16 15 14 17 9 9 13 13 8 7 2 3 3 2 6 2 7 12 16 16 11 7 9 5 7 9 6 2 5 1 4 5 4 4 1 4 2 4 7 7 5 6 5 2 5 3 7 6 7 8 13 14 14 13 9 11 12 15 9 8 13 14 14 13 14 5 7 8 6 8 8 8 7 5 4 4 5 5 5 4
1 5 3 2 3 2 8 16 21 16 21 21 7 15 14 18 16 10 6 4 3 2 4 7 10 12 15 13 11 8 14 9 6 6 6 5 6 5 3 3 1 3 1 4 1 0 2 4 6 8 6 4 2 2 2 6 4 3 5 6 7 8 12 15 16 17 15 11 14 17 13 15 11 4 6 7 7 6 3 3 5 6 8 8 6 5 5 5
7 13 7 1 5 13 17 13 11 11 14 18 9 15 14 19 18 9 4 9 8 8 2 7 13 11 12 13 12 10 13 14 14 9 4 13 5 3 5 4 5 2 2 4 3 1 3 3 9 4 4 4 4 4 4 5 3 5 4 5 8 10 12 14 14 15 14 13 15 14 11 14 5 5 7 4 2 4 5 5 7 9 8 7 6 6 6 6
2 4 2 12 7 12 15 13 15 16 14 14 10 11 9 16 17 14 5 1 13 12 10 15 15 12 10 12 12 12 13 12 10 15 15 19 16 11 10 3 10 9 2 3 1 1 3 1 3 4 5 6 5 6 6 4 2 3 4 4 7 11 11 11 12 12 8 10 12 10 11 14 13 5 1 4 5 7 8 8 7 5 7 8 8 8 9 8
2 0 1 4 4 12 16 14 13 13 14 18 16 16 12 19 13 15 6 3 3 3 7 9 12 11 8 10 14 12 8 5 7 7 10 2 5 6 3 10 16 15 8 9 3 7 6 6 6 6 8 9 7 10 5 7 6 7 9 11 13 11 10 9 12 12 13 14 12 12 17 16 9 4 7 5 6 7 8 7 5 5 6 10 12 12 11 9
Wind_Direction
210 200 206 199 193 187 183 181 181 180 177 173 170 168 166 165 165 164 166 157 153 151 154 149 146 145 144 143 140 139 145 121 156 175 197 223 123 134 130 122 124 106 194 268 306 18 349 358 312 289 301 256 221 222 175 222 276 154 224 226 238 256 177 167 214 140 141 125 153 165 174 127 142 164 115 151 97 94 141 106 80 66 66 82 90 111 122 131
214 198 202 200 194 184 182 181 179 177 174 174 171 169 165 162 161 162 163 154 149 153 152 147 150 146 145 147 146 158 163 122 181 200 214 118 126 143 140 157 125 129 158 130 63 80 29 348 325 329 283 284 160 245 128 213 156 187 231 218 241 231 275 356 64 74 159 152 157 164 191 147 157 151 159 147 174 133 158 139 138 102 96 92 101 120 126 139
213 195 197 197 194 186 182 180 178 177 175 174 174 166 160 160 158 158 157 153 151 151 150 150 146 146 149 147 161 183 170 76 304 241 222 139 149 164 164 172 142 157 152 121 159 170 116 297 313 314 319 286 256 238 174 220 164 234 300 242 248 218 95 39 72 75 49 130 148 151 193 203 144 155 133 198 168 161 174 164 160 148 144 149 141 139 140 146
205 195 204 202 185 184 180 180 176 176 174 173 174 170 165 161 158 158 154 153 151 148 147 148 148 148 148 156 173 199 155 26 252 233 206 161 158 170 179 163 156 164 153 64 34 30 62 318 296 308 301 275 273 249 181 189 140 196 181 239 265 271 104 28 64 53 46 117 139 152 158 121 154 118 150 212 161 187 201 189 176 175 155 152 156 148 156 154
205 196 199 195 193 180 182 179 176 174 172 171 173 172 166 162 158 152 147 151 150 148 146 144 148 149 149 158 193 204 101 352 260 215 169 169 158 166 168 166 169 181 124 93 31 327 94 340 323 301 319 297 279 278 255 196 210 324 225 216 323 349 81 41 65 35 23 347 129 133 147 148 101 115 183 196 201 178 195 209 178 176 150 150 160 155 159 164
197 194 201 192 187 182 181 178 174 171 169 168 170 169 167 162 156 152 149 147 148 148 146 146 144 148 150 172 183 244 136 211 28 126 173 166 170 167 169 176 178 174 124 100 95 47 62 354 272 265 257 237 285 271 231 246 153 258 246 245 32 348 85 14 76 14 352 112 122 134 159 93 121 156 217 202 225 130 42 31 74 125 150 157 152 150 164 169
195 193 196 189 189 181 181 177 173 170 167 165 168 167 166 162 155 152 150 147 149 147 144 145 144 143 163 156 210 218 197 238 357 213 19 173 165 161 165 174 166 164 128 108 81 81 97 346 272 249 223 277 283 264 257 248 161 237 270 167 53 41 67 12 69 16 15 37 125 163 117 122 152 179 191 228 93 123 67 49 46 93 124 131 144 164 169 175
197 192 191 187 184 181 176 176 174 169 166 161 164 165 164 162 154 152 149 148 148 145 143 146 142 153 149 162 135 197 215 233 53 244 66 168 161 155 154 158 173 153 140 138 135 142 81 189 234 245 251 233 252 237 262 314 195 239 253 101 108 96 120 77 114 67 55 58 346 70 131 148 171 187 102 216 141 133 103 86 64 108 126 138 146 166 175 175
192 190 185 183 180 180 177 173 172 172 167 163 159 162 162 160 155 150 148 146 146 145 143 141 151 155 176 154 174 162 225 202 93 133 138 142 161 142 141 155 180 154 160 139 145 144 120 253 243 244 249 213 260 278 177 152 275 225 270 98 149 95 115 142 84 112 96 88 26 93 156 73 95 143 227 226 175 132 120 91 107 118 140 146 158 169 171 176
191 187 184 182 181 177 179 176 173 170 164 160 158 157 157 157 153 149 146 146 146 144 144 146 151 168 184 179 168 206 263 117 115 124 146 146 143 143 170 163 169 161 152 146 133 142 176 224 244 272 284 298 278 278 198 184 259 303 150 94 97 114 114 228 143 129 134 108 193 172 166 95 50 116 259 193 132 143 120 123 132 137 164 158 159 171 174 174
189 184 184 183 179 175 173 174 176 169 164 158 157 156 152 154 150 147 145 144 146 144 143 151 162 164 184 191 165 204 11 133 136 123 134 140 145 153 176 171 173 160 172 143 154 164 194 216 242 298 304 268 340 291 215 268 337 19 99 92 98 129 87 172 116 130 141 110 177 256 82 78 78 108 249 128 166 151 145 147 158 160 165 172 164 169 171 178
185 180 179 178 175 171 171 170 171 168 162 157 157 153 152 151 148 146 144 142 143 144 147 155 165 178 186 188 195 183 226 98 147 134 136 142 152 168 165 174 171 174 163 152 171 182 196 186 226 256 237 29 264 350 275 181 267 152 167 145 145 156 143 192 158 174 222 108 186 271 89 214 167 220 206 152 131 168 156 160 167 180 165 168 170 164 171 180
183 177 177 175 169 169 168 165 166 165 159 152 149 147 146 147 146 143 141 140 145 147 151 157 166 238 175 183 212 91 220 126 138 142 137 128 108 85 122 162 176 168 168 156 178 195 175 163 176 258 268 281 298 295 287 311 236 181 223 214 146 184 240 183 92 123 152 53 195 8 210 235 214 220 185 154 150 156 178 170 169 180 181 165 169 167 175 185
178 172 173 174 168 166 165 164 163 161 153 146 143 141 142 143 142 140 140 140 147 147 152 160 170 224 196 203 125 179 126 125 136 148 146 136 115 103 88 122 109 101 64 92 114 178 182 183 230 274 330 242 264 351 321 321 253 203 199 227 193 131 232 162 156 159 159 245 88 7 177 261 236 192 133 156 146 156 176 189 169 172 182 175 171 169 178 190
177 169 168 167 165 161 161 161 159 154 150 142 139 137 137 142 139 136 134 133 145 146 146 153 215 184 188 194 78 139 28 136 166 169 152 159 126 116 126 143 136 98 92 93 98 23 149 153 191 249 243 40 128 278 274 226 248 246 186 226 228 171 82 162 148 170 157 255 199 122 328 242 15 126 135 139 166 170 176 179 176 171 175 179 173 173 177 187
171 169 165 167 163 162 160 158 155 151 146 137 135 133 132 133 135 134 133 132 140 138 134 160 213 246 167 193 175 111 186 169 187 157 187 148 147 129 141 134 116 92 91 61 77 66 222 149 199 214 198 45 204 219 258 224 220 247 213 157 204 200 156 187 288 202 353 131 206 206 215 262 168 150 125 175 151 182 202 200 179 175 176 176 179 184 184 182
168 165 164 164 160 162 156 151 149 146 141 136 130 129 126 126 130 130 131 128 124 130 150 166 175 235 158 359 88 175 174 176 118 143 169 155 156 125 124 124 123 118 92 81 90 93 162 189 72 348 226 200 157 191 237 227 219 226 209 233 188 204 145 206 41 217 214 157 187 234 223 245 154 160 173 171 188 175 205 221 202 184 176 174 177 180 190 195
164 163 161 160 159 159 154 148 144 144 138 133 128 127 126 124 123 122 121 120 115 130 199 96 223 103 274 137 193 193 154 138 153 142 136 74 128 136 138 142 124 123 125 106 112 171 177 193 155 210 163 204 182 201 203 205 185 179 181 250 255 215 181 157 163 193 146 245 192 191 234 264 200 170 178 194 184 182 205 213 228 203 179 177 178 183 191 193
163 161 159 156 155 155 153 145 142 136 133 127 122 116 117 113 107 99 136 143 142 135 171 184 191 186 212 188 175 154 160 138 119 137 138 147 144 146 147 109 138 132 147 157 183 186 171 161 163 206 207 191 203 203 211 251 195 211 184 189 236 179 211 174 219 160 167 180 222 183 204 230 247 197 190 186 197 183 204 204 205 214 205 189 184 191 192 198
162 159 157 154 153 154 148 144 136 135 133 129 127 124 119 131 139 152 166 197 206 173 267 184 187 330 63 135 164 103 109 135 130 164 144 150 147 154 135 142 140 155 147 181 157 207 156 181 192 200 199 197 207 211 221 235 283 242 195 192 217 156 200 61 95 48 23 152 218 221 220 229 239 234 196 188 187 206 199 194 200 204 201 208 207 194 197 197
159 157 153 150 152 152 146 141 139 140 139 140 140 141 156 162 155 169 174 198 209 225 200 159 190 192 74 115 120 132 136 157 139 144 159 155 146 148 153 149 156 168 179 159 151 141 177 196 207 192 209 198 203 215 230 283 282 311 216 179 217 194 167 4 153 203 254 117 241 222 258 253 248 246 234 167 169 201 200 197 200 207 208 206 204 210 204 209
156 153 150 149 151 148 144 142 143 144 143 146 151 157 167 173 41 57 140 155 232 248 278 161 190 137 126 131 151 142 130 139 145 148 124 177 162 171 161 176 167 176 173 161 122 154 196 208 185 194 207 230 197 202 235 232 311 300 2 192 203 220 98 157 64 64 210 93 275 192 219 242 244 246 260 182 187 205 199 193 202 200 210 211 207 205 206 196
152 151 147 148 149 147 144 143 145 146 149 158 165 165 166 194 28 122 134 90 102 245 225 156 185 154 145 142 125 324 145 160 155 154 166 199 162 208 153 179 177 173 177 178 163 156 194 218 212 188 197 180 194 194 165 155 345 324 305 23 223 152 142 279 328 121 280 205 236 35 314 279 278 261 244 240 231 220 198 199 206 197 208 210 205 196 195 196
151 149 147 150 148 147 144 144 146 153 168 161 154 155 157 221 149 149 130 135 143 174 166 168 160 143 147 153 176 194 165 157 144 169 176 174 165 151 162 181 171 190 188 183 171 176 185 156 49 169 181 187 176 161 175 170 230 240 265 303 269 143 289 104 178 137 28 2 113 329 322 285 238 242 241 233 228 229 220 212 205 207 207 205 206 201 192 191
150 148 147 149 148 145 145 144 154 171 157 149 153 175 142 165 28 290 128 101 104 108 303 174 234 160 146 321 150 170 166 141 172 149 166 182 166 162 183 175 179 193 180 180 178 176 195 219 299 132 162 167 156 180 194 155 234 245 228 206 343 178 113 95 116 116 129 277 218 132 345 282 225 214 223 222 211 222 218 202 207 205 205 199 208 214 209 205
149 147 148 149 147 147 144 151 171 156 158 166 170 180 137 90 331 63 173 101 150 151 140 186 172 165 142 140 162 179 156 160 136 159 161 188 180 171 143 198 188 183 183 180 194 172 178 8 198 172 174 167 177 195 195 162 196 207 246 201 180 69 115 128 157 143 151 187 285 100 176 269 310 246 228 216 192 215 207 198 208 201 203 207 216 213 206 202
148 147 148 150 150 146 153 169 156 151 162 173 172 181 91 74 351 27 161 86 170 167 164 66 182 175 215 157 168 143 161 177 332 148 162 160 169 359 174 168 153 194 169 141 81 225 105 91 72 136 147 163 175 198 208 174 173 227 242 335 145 114 122 159 153 178 163 49 19 329 153 212 288 283 308 174 173 202 204 217 226 217 208 210 216 217 214 212
148 148 150 153 155 160 105 131 151 169 172 154 164 114 74 105 39 248 205 125 210 135 189 175 208 342 63 169 182 171 50 120 125 207 188 145 65 89 181 178 175 180 159 141 196 46 143 146 178 144 147 152 195 184 170 170 180 205 287 354 65 135 153 151 145 184 292 95 288 212 267 340 251 261 230 81 225 259 235 219 219 215 211 207 205 206 207 203
150 151 152 155 156 141 123 147 159 157 121 153 109 90 104 65 196 215 147 164 119 125 92 130 20 141 135 161 187 178 118 164 156 132 116 123 322 153 184 177 167 95 37 176 181 165 346 167 179 155 151 189 143 134 330 163 184 246 216 54 46 52 85 132 145 136 30 107 252 222 201 196 283 246 234 253 206 233 231 223 222 205 201 196 176 162 146 122
151 151 152 150 150 125 129 134 149 133 145 135 95 99 91 97 196 184 155 218 136 171 181 121 186 168 164 165 181 177 154 192 88 134 147 156 186 333 26 320 157 123 110 58 69 28 268 134 200 94 183 118 122 34 102 52 110 131 129 82 53 49 58 358 96 115 73 251 244 211 203 184 294 248 196 168 216 205 235 258 1 106 115 110 124 133 135 138
153 152 151 156 156 149 136 154 146 146 142 128 112 97 112 324 180 148 178 144 136 110 116 155 153 159 163 169 175 184 179 109 135 140 154 165 178 200 139 160 114 105 106 77 61 126 72 24 38 310 318 181 116 79 14 150 121 121 120 129 91 2 34 41 329 77 178 266 228 324 283 139 192 289 241 186 252 157 145 187 171 135 135 129 127 124 125 133
152 151 154 160 121 146 155 148 147 148 144 135 123 134 176 145 292 191 156 134 162 173 167 159 163 167 177 173 164 172 164 130 160 161 162 175 167 180 191 179 164 131 183 175 155 134 57 122 120 41 271 168 159 97 3 22 358 92 118 121 124 192 79 325 192 221 216 220 269 356 349 305 247 238 284 265 181 170 192 151 176 160 148 139 126 131 144 158
150 151 152 139 133 143 124 120 129 134 134 134 133 162 171 162 174 194 136 170 176 156 193 170 162 170 167 160 169 165 150 155 164 176 158 160 163 191 195 182 174 169 163 156 102 132 42 129 193 71 56 243 196 143 152 107 260 163 153 145 139 139 156 207 223 200 272 310 282 334 274 265 264 274 239 258 261 190 173 130 111 134 142 143 145 145 150 178
146 147 147 143 130 106 130 134 138 138 137 140 147 163 194 172 187 202 157 189 143 166 141 163 152 151 164 177 160 168 158 157 162 166 165 161 175 178 197 205 176 187 154 152 159 175 141 305 230 153 239 159 196 185 174 149 164 190 167 149 169 160 152 199 174 194 205 194 305 275 79 232 131 251 259 231 199 96 72 89 120 116 121 124 135 182 210 188
146 148 133 119 79 125 133 132 141 142 138 147 162 179 169 184 180 180 164 169 142 149 150 147 151 154 169 173 152 174 169 136 182 156 174 166 187 187 185 194 186 183 142 144 209 149 194 164 312 344 225 237 179 246 121 119 101 216 167 84 170 223 165 170 195 187 145 113 129 325 206 220 189 245 259 146 116 76 159 159 151 158 145 137 178 207 204 180
140 140 135 129 129 147 140 145 146 148 150 154 157 187 199 185 174 174 174 139 153 149 147 148 151 158 161 161 158 167 192 146 177 159 183 190 187 188 186 189 183 187 180 175 141 150 135 222 348 340 53 56 3 334 317 189 165 220 118 198 190 106 95 101 11 247 48 39 259 172 307 293 273 309 270 176 130 223 152 239 224 215 161 143 180 187 180 159
142 141 140 145 134 146 143 153 153 154 164 167 164 189 201 182 245 144 134 157 155 142 145 151 174 160 169 171 168 174 165 139 173 166 183 176 198 199 184 198 190 185 203 137 171 207 157 147 317 79 155 272 147 45 319 38 280 100 141 216 117 166 115 136 221 54 216 173 254 144 206 275 191 274 314 89 203 216 220 217 214 205 175 161 190 181 170 170
145 147 134 155 141 140 149 151 149 158 151 185 194 195 162 182 272 142 140 130 143 154 149 158 157 175 170 162 169 165 163 167 175 178 178 177 238 181 182 187 188 196 193 148 131 222 109 73 354 9 25 310 219 282 60 300 42 114 172 319 143 226 276 253 185 245 234 230 257 234 218 243 180 237 151 240 205 226 222 203 176 187 184 194 169 169 160 152
133 136 147 158 124 144 145 147 157 150 165 196 205 188 178 154 161 155 153 144 151 152 159 169 148 192 167 169 158 158 163 178 163 189 159 192 214 180 192 172 185 188 183 124 149 167 149 124 308 341 51 188 359 171 192 206 341 171 119 64 36 99 197 138 189 214 120 240 209 299 147 243 217 218 210 243 210 208 194 175 206 201 191 190 175 164 163 169
140 140 154 137 139 135 145 148 151 173 210 198 185 198 120 106 166 153 146 144 155 157 172 154 172 149 173 157 158 164 175 164 163 183 191 152 219 178 186 175 171 181 175 161 122 146 120 96 146 239 323 90 176 201 208 170 154 225 60 91 127 85 223 101 299 193 178 206 210 241 309 278 258 237 218 221 151 149 166 190 207 210 190 180 169 163 167 176
141 133 133 146 143 138 142 144 164 190 197 206 198 153 157 153 158 153 150 146 134 346 160 165 161 172 162 149 167 154 159 159 171 182 188 157 181 163 237 177 145 168 109 79 79 174 89 83 128 138 105 223 197 19 12 230 206 184 168 183 178 153 138 162 266 68 108 141 238 229 242 283 276 14 34 106 135 105 36 136 179 139 145 136 133 151 160 165
149 156 151 150 145 153 153 155 195 191 193 184 185 172 159 148 136 144 142 150 138 124 337 157 169 155 154 166 160 161 160 167 170 180 197 168 189 191 200 156 161 152 155 175 171 281 144 89 106 137 192 167 322 286 335 262 60 87 171 202 162 156 140 144 197 253 22 257 101 174 337 273 245 341 30 15 57 95 140 68 115 129 123 144 153 133 116 138
159 69 118 145 156 164 159 172 179 180 194 190 60 47 126 124 135 153 142 156 141 163 138 168 171 154 177 158 157 162 166 171 170 190 178 167 176 190 214 163 146 157 132 87 73 211 72 109 87 51 29 355 278 226 227 279 241 55 303 233 144 187 188 189 185 180 161 182 209 264 242 246 288 21 331 322 303 304 269 212 149 97 117 124 134 115 116 102
127 122 126 142 168 180 168 172 175 189 192 118 170 103 307 160 143 155 153 161 142 169 156 145 158 181 156 160 155 168 172 148 193 174 169 170 171 359 289 141 154 158 162 188 170 196 141 218 114 125 75 21 348 1 328 300 214 212 189 201 183 90 139 129 100 39 139 215 173 156 238 262 275 320 309 317 277 234 237 238 171 141 126 131 132 127 120 125
112 51 81 141 181 203 194 190 187 179 178 161 148 161 157 66 2 126 152 138 94 151 129 153 157 133 102 126 148 157 182 177 132 197 112 159 50 311 327 154 158 167 103 166 129 154 115 163 133 147 155 167 192 199 205 209 203 303 5 62 188 140 142 126 225 185 211 254 177 198 258 256 290 323 296 274 269 275 252 161 195 201 157 146 141 144 141 144
154 129 118 123 199 221 274 334 285 181 167 170 155 185 140 106 95 12 97 75 348 98 74 114 95 125 130 135 143 166 182 180 135 168 149 125 97 356 304 155 145 137 320 139 139 138 135 150 173 175 181 197 204 205 124 113 114 172 212 183 194 195 191 171 96 187 210 217 192 234 219 262 284 274 276 269 255 232 213 180 173 202 216 170 163 167 165 166
142 138 153 153 161 229 218 237 218 176 184 170 170 168 162 153 139 55 342 123 256 123 120 132 149 148 174 154 165 171 175 118 88 128 159 126 52 144 9 78 73 55 123 123 149 92 103 158 203 200 216 216 213 185 175 153 173 195 188 200 193 189 186 180 185 215 197 194 254 236 233 236 244 212 224 248 237 239 221 195 198 189 201 178 176 157 148 113
151 201 174 169 163 175 188 227 214 184 179 178 172 156 160 142 162 148 38 351 131 263 120 340 174 171 167 172 153 159 166 152 139 161 139 92 112 106 78 7 57 327 353 142 163 117 150 182 194 181 236 186 72 93 154 179 189 195 197 193 193 192 180 185 212 223 200 191 223 232 224 233 244 198 207 219 204 203 203 201 191 173 164 168 148 154 160 151
353 109 152 175 279 122 221 174 181 171 170 182 160 170 162 164 172 165 152 130 145 220 194 147 191 182 174 166 156 165 166 154 204 169 153 155 136 132 79 40 46 13 40 131 78 268 110 195 166 174 208 199 151 116 143 170 207 208 199 206 199 185 193 198 212 220 215 217 227 238 239 234 237 207 207 224 218 198 192 145 130 148 179 185 165 160 169 176
158 159 167 301 328 163 166 144 169 158 177 182 174 190 172 172 168 143 145 152 161 200 191 167 176 172 169 169 168 173 187 190 172 154 135 127 147 143 165 171 155 9 16 141 146 298 120 250 146 136 187 229 224 156 151 181 170 228 244 200 177 181 198 210 219 229 228 238 243 249 260 267 242 183 212 226 137 89 101 138 180 192 178 172 163 173 184 193
349 351 327 162 149 155 162 164 170 167 168 186 201 180 183 177 173 158 140 213 180 169 183 181 164 160 166 174 181 190 186 183 161 169 161 150 171 188 142 217 142 148 141 112 131 334 129 261 131 123 184 243 225 210 200 171 179 205 236 214 186 178 195 210 217 224 210 226 242 258 264 259 252 200 164 151 149 157 173 196 202 199 179 170 173 186 195 202
299 157 126 138 108 162 164 167 169 155 186 189 184 176 182 179 165 148 118 359 38 153 169 140 153 142 171 173 194 197 171 143 152 141 154 101 86 105 84 148 152 152 171 169 159 151 173 146 148 148 195 231 219 202 167 112 44 311 250 215 202 202 200 209 221 219 211 210 221 224 235 236 247 146 211 224 179 194 195 196 201 207 194 181 186 192 200 199